Temperature
17 17 18 18 18 18 18 18 18 18 17 17 17 17 16 16 16 16 16 16 15 15 15 15 15 15 15 15 15 14 14 14 14 14 14 14 14 14
17 17 17 17 18 18 18 18 18 18 17 17 16 16 16 15 15 15 15 15 15 15 15 14 14 14 14 14 14 14 14 14 14 14 13 13 13 13
16 16 17 17 17 17 17 17 17 17 17 16 16 15 15 15 15 15 14 14 14 14 14 14 14 13 13 13 13 13 13 13 13 13 13 13 13 13
16 16 16 16 16 16 16 16 16 16 16 15 15 15 14 14 14 14 13 13 13 13 13 13 13 13 13 12 12 12 12 12 12 12 12 12 12 12
16 16 16 16 16 16 16 16 16 15 15 15 14 14 13 13 13 13 13 12 12 12 12 12 12 12 11 11 11 11 11 11 11 11 11 11 11 11
15 15 15 15 15 15 15 15 15 15 14 14 14 13 13 12 12 12 12 11 11 11 11 11 11 11 10 10 10 10 10 10 10 10 10 10 10 10
15 15 15 15 14 14 14 14 14 14 14 13 13 12 12 12 12 11 11 11 11 10 10 10 10 10 9 9 9 9 9 9 8 8 8 8 8 8
14 14 14 14 14 14 13 13 13 13 13 12 12 11 11 11 11 10 10 10 10 10 9 9 9 9 9 8 8 8 8 8 7 7 7 7 7 7
13 13 13 13 13 13 12 12 12 12 12 11 11 11 10 10 10 9 9 9 9 9 9 9 8 8 8 8 7 7 7 7 6 6 6 6 6 6
13 12 12 12 11 11 11 11 11 11 11 10 10 10 9 9 9 8 8 8 8 8 8 8 7 7 7 7 7 7 6 6 6 6 5 5 5 5
12 11 11 11 11 10 10 10 10 9 9 9 9 9 8 8 8 8 8 7 7 7 7 7 6 6 6 6 6 6 6 5 5 5 5 5 5 5
11 11 10 10 10 10 9 9 9 8 8 8 8 8 7 7 7 7 7 7 6 6 6 6 5 5 5 5 5 5 5 5 5 5 4 4 4 4
10 10 10 9 9 9 9 8 8 8 8 7 7 7 7 6 6 6 6 6 6 5 5 5 5 4 4 4 5 5 4 4 4 4 4 4 4 4
10 9 9 8 8 8 8 8 7 7 7 7 6 6 6 6 6 5 5 5 5 5 5 5 4 4 4 3 4 4 4 4 4 4 4 4 3 3
9 8 8 7 7 7 7 7 7 6 6 6 6 6 5 5 5 5 5 5 5 5 5 4 4 4 4 3 3 4 4 4 4 3 3 3 3 3
8 7 7 7 6 6 6 6 6 6 6 6 5 5 5 5 5 5 5 4 5 5 4 4 4 4 4 4 4 3 3 3 3 3 3 3 3 3
7 7 6 6 6 6 6 5 5 5 5 5 5 5 5 5 5 4 4 4 4 4 4 4 4 4 4 4 4 4 3 3 3 3 3 3 3 3
7 6 6 6 6 6 6 6 5 5 5 5 5 5 5 4 4 4 4 4 4 4 4 4 4 4 4 4 4 3 3 3 3 3 3 3 3 3
6 6 6 6 6 6 6 6 5 5 5 5 5 4 4 4 4 4 4 4 4 4 4 4 4 3 3 3 3 3 3 3 3 3 3 3 3 3
6 6 6 6 6 6 6 5 5 5 5 5 5 4 4 4 4 4 4 4 4 4 4 4 4 3 3 3 3 3 3 3 3 3 3 3 3 3
6 6 6 6 6 5 5 5 5 5 5 5 5 4 4 4 4 4 4 4 4 4 4 4 4 3 3 3 3 4 4 4 3 3 3 3 3 3
6 6 6 6 5 5 5 5 5 5 5 5 4 4 4 4 4 4 4 4 4 4 4 4 4 3 3 3 3 3 4 4 4 4 4 4 3 3
6 6 6 6 5 5 5 5 5 5 4 4 4 4 4 4 4 4 4 4 3 3 3 3 3 3 3 3 4 4 4 4 4 4 4 4 4 3
Wind_Speed
3 3 2 2 1 1 1 1 1 1 1 1 3 4 8 10 9 9 8 9 8 8 7 6 5 5 5 5 5 6 6 7 7 8 8 9 9 10
2 2 1 2 2 2 2 2 2 1 1 2 3 4 6 7 9 9 9 10 9 8 8 7 7 6 6 6 7 7 8 8 9 9 9 9 9 10
2 2 3 3 4 4 3 4 4 3 3 3 4 4 5 6 5 5 6 8 8 7 7 7 6 6 6 6 7 8 8 9 9 10 10 10 10 11
2 3 3 2 4 4 4 4 3 3 3 4 3 4 5 4 3 2 4 5 6 7 7 6 5 5 5 6 8 9 9 10 10 10 11 11 12 12
5 5 4 5 5 5 5 5 4 4 4 4 3 3 4 3 3 4 5 5 4 6 6 4 3 3 4 6 8 9 10 10 10 11 11 12 12 13
8 8 7 7 6 5 5 5 5 4 4 4 4 4 4 4 4 3 3 4 3 5 6 4 2 1 3 5 7 7 7 8 9 10 10 11 12 13
10 11 11 14 15 10 7 6 6 5 4 5 5 5 5 4 4 4 4 3 3 4 3 3 2 2 1 5 7 5 4 5 6 8 9 10 12 14
10 10 10 12 15 17 17 16 12 8 6 5 5 6 5 5 4 4 4 3 3 4 4 4 4 2 2 2 5 3 0 3 6 7 9 11 13 15
8 7 8 9 9 9 12 14 15 16 12 8 8 6 5 5 4 4 4 4 3 3 3 3 4 4 6 2 2 4 5 6 8 10 11 13 15 16
8 8 8 7 6 6 9 9 9 9 10 8 7 6 5 4 4 4 4 4 2 4 5 3 4 4 6 5 5 4 6 10 12 13 15 16 17 17
9 9 8 8 8 8 8 9 8 6 11 12 11 9 7 6 7 5 5 4 4 4 5 4 5 5 5 3 7 9 12 13 14 16 16 17 17 17
9 9 11 10 11 9 7 7 7 4 4 4 4 3 3 2 5 5 5 6 5 3 5 5 5 6 5 4 7 12 13 14 16 15 16 16 18 14
8 7 6 11 12 11 9 6 4 2 0 1 3 3 3 4 6 7 6 3 3 3 4 4 4 5 4 6 6 8 11 12 13 13 14 16 17 14
8 7 7 11 12 10 7 5 5 3 0 2 4 4 4 4 3 3 2 2 3 4 4 3 3 4 5 7 7 6 8 11 10 8 12 15 16 16
9 12 10 9 7 6 5 5 4 2 2 4 4 4 3 1 2 2 3 4 5 5 3 3 3 4 4 6 6 6 6 6 6 6 7 8 9 10
10 10 9 6 3 2 2 0 1 3 3 3 3 3 2 2 2 3 3 3 3 2 3 5 6 4 5 6 6 6 6 6 6 5 5 6 11 11
8 6 4 4 3 3 3 3 3 3 3 3 3 3 3 2 2 2 3 4 4 4 4 4 8 8 7 6 5 5 6 6 6 7 7 7 6 8
6 5 4 4 4 4 4 3 3 4 3 2 3 3 2 2 2 2 2 3 4 4 4 4 4 5 5 5 4 5 6 7 7 7 7 7 7 7
2 3 4 3 3 3 3 4 4 3 1 2 2 2 2 2 2 2 3 3 4 4 5 4 4 5 7 8 6 8 7 7 7 7 7 7 8 7
2 3 4 4 3 3 3 3 3 3 1 0 1 2 2 2 3 3 3 3 4 5 5 4 4 4 5 7 8 8 10 7 6 7 8 7 7 9
4 4 4 4 4 4 3 3 2 2 1 1 1 1 2 3 3 3 3 4 4 4 5 5 4 7 6 5 7 6 6 12 11 8 7 7 7 7
3 4 4 4 4 4 3 1 1 2 1 0 2 2 2 3 4 4 4 4 4 5 6 5 5 5 5 6 8 9 8 8 12 15 13 11 6 6
4 4 4 4 4 3 3 1 1 1 2 2 2 2 3 3 3 4 4 4 5 6 6 6 6 6 6 7 7 8 10 9 7 7 7 13 15 18
Wind_Direction
211 201 249 289 307 12 24 87 140 179 196 89 71 70 93 98 111 113 108 118 115 106 97 85 71 59 48 35 26 21 14 4 356 350 343 337 331 324
183 157 138 335 5 29 17 37 57 85 103 73 75 67 66 91 88 96 103 108 116 110 99 89 78 66 56 48 43 37 29 21 13 6 359 354 348 342
192 134 106 43 30 25 31 41 42 57 92 87 76 69 65 69 71 81 120 116 114 116 112 104 94 80 68 61 58 52 44 34 24 14 6 359 355 350
122 101 98 94 70 37 35 45 47 58 89 107 98 81 66 62 52 29 68 92 106 122 126 117 103 94 88 81 74 66 56 45 35 26 17 8 1 354
105 94 84 80 70 57 46 38 30 51 68 98 99 82 67 44 30 29 44 49 63 116 115 110 106 116 113 107 91 76 63 52 42 32 22 13 5 359
86 82 73 71 66 60 61 47 42 43 64 83 89 83 64 39 41 17 32 21 21 44 38 32 32 103 116 133 113 90 69 53 38 25 14 4 357 351
88 82 77 77 70 65 67 55 52 52 60 71 77 71 54 39 22 359 26 15 9 31 15 347 357 27 60 147 137 112 79 44 17 0 349 342 338 334
105 97 91 84 83 79 75 68 62 64 57 65 72 73 58 36 13 8 18 1 352 4 354 337 2 7 9 102 151 167 259 338 330 322 319 319 318 318
109 107 101 97 93 94 86 77 65 60 62 76 76 68 64 30 10 5 7 348 320 321 349 340 1 2 358 36 197 247 268 284 292 299 303 306 308 309
97 97 97 88 83 96 98 87 74 59 66 76 80 71 69 31 7 348 336 325 322 19 25 355 354 346 340 319 291 282 288 287 291 296 300 302 304 304
86 83 91 85 66 89 104 103 99 90 82 94 100 99 83 51 23 10 3 357 3 29 24 2 347 337 323 324 347 331 317 307 304 303 302 301 301 302
95 81 75 79 68 73 91 95 93 83 92 113 124 133 133 82 52 39 21 7 359 12 21 2 350 348 329 338 348 333 329 326 321 317 315 313 310 304
110 98 81 78 73 69 76 82 84 68 30 125 119 109 90 73 60 50 42 23 7 354 354 357 342 343 326 319 320 323 329 327 327 327 325 321 319 310
111 107 98 84 76 71 71 52 31 6 31 80 78 67 64 57 41 20 356 294 257 251 281 315 313 320 318 317 318 320 326 326 327 326 325 327 325 321
105 111 112 103 93 84 78 44 19 26 54 71 72 67 69 68 327 328 324 301 283 283 280 261 271 295 298 304 308 314 317 316 322 323 320 320 314 313
111 114 113 105 79 72 114 82 68 50 46 59 62 59 45 38 27 9 348 327 317 315 317 296 276 269 284 291 298 309 317 316 319 317 316 311 313 318
129 136 146 152 160 156 126 98 87 76 58 54 51 43 30 22 18 3 338 332 344 344 338 323 323 311 296 293 308 318 320 320 320 320 319 316 313 322
137 149 150 147 137 129 126 120 100 76 47 42 47 37 17 1 357 351 341 343 344 340 335 330 332 332 328 324 321 325 321 319 316 314 313 314 313 312
130 129 120 117 116 119 114 108 104 100 52 21 40 29 360 345 348 347 347 359 350 334 325 326 340 346 337 331 319 317 308 309 311 311 311 311 309 308
178 140 129 128 120 109 104 97 103 115 102 7 35 16 354 342 344 348 356 2 334 319 321 330 345 340 318 307 302 302 307 303 306 307 308 307 300 301
166 146 141 141 128 108 98 95 96 101 91 313 57 22 348 344 349 343 344 341 322 320 333 331 319 307 286 291 304 307 307 313 304 291 296 303 306 308
154 138 123 115 112 114 119 129 169 154 157 301 61 12 357 350 343 338 341 338 331 332 329 320 315 313 310 311 313 314 312 311 312 307 292 277 285 300
131 121 121 129 129 143 140 178 236 121 90 47 32 9 353 343 328 327 334 336 329 326 326 324 322 318 318 313 311 313 316 318 316 315 311 307 289 280
Height
1562 1564 1565 1567 1568 1569 1570 1572 1573 1573 1575 1575 1576 1576 1576 1576 1577 1577 1578 1578 1578 1578 1577 1577 1577 1576 1576 1576 1575 1575 1574 1573 1573 1572 1571 1571 1570 1569
1560 1562 1563 1565 1566 1567 1569 1570 1570 1571 1572 1573 1574 1575 1575 1575 1575 1576 1576 1576 1575 1575 1575 1574 1574 1573 1572 1572 1571 1570 1569 1569 1568 1567 1566 1565 1564 1563
1558 1559 1561 1562 1563 1565 1566 1567 1569 1569 1570 1572 1572 1573 1573 1573 1573 1573 1573 1573 1573 1572 1572 1571 1571 1570 1569 1568 1566 1565 1564 1564 1563 1561 1560 1559 1558 1557
1555 1557 1558 1560 1562 1563 1564 1565 1567 1567 1568 1569 1570 1571 1571 1571 1571 1572 1572 1571 1570 1570 1569 1568 1567 1567 1565 1564 1563 1561 1560 1559 1558 1556 1555 1553 1552 1551
1553 1555 1556 1558 1560 1561 1562 1563 1564 1566 1566 1567 1568 1569 1569 1569 1569 1570 1570 1569 1569 1568 1567 1566 1565 1564 1563 1561 1559 1558 1557 1555 1553 1552 1550 1548 1546 1545
1551 1553 1554 1556 1558 1559 1560 1561 1563 1564 1565 1565 1566 1566 1567 1567 1567 1568 1567 1567 1567 1566 1565 1564 1563 1562 1560 1559 1557 1555 1553 1552 1550 1548 1545 1543 1541 1539
1549 1551 1552 1554 1556 1557 1559 1560 1561 1562 1563 1563 1564 1564 1565 1565 1566 1566 1565 1565 1565 1565 1563 1562 1561 1559 1558 1556 1554 1553 1551 1549 1547 1544 1541 1539 1536 1534
1547 1549 1551 1552 1554 1555 1557 1558 1559 1560 1561 1562 1562 1563 1563 1563 1563 1563 1563 1563 1563 1563 1562 1561 1560 1558 1556 1554 1553 1551 1549 1546 1544 1541 1538 1535 1532 1529
1546 1548 1549 1551 1553 1554 1555 1556 1557 1558 1560 1561 1561 1561 1562 1561 1561 1561 1561 1561 1561 1560 1560 1559 1558 1556 1555 1553 1551 1549 1546 1544 1541 1538 1535 1532 1528 1525
1545 1547 1548 1550 1551 1552 1553 1555 1556 1557 1558 1559 1560 1560 1561 1561 1560 1560 1560 1560 1560 1559 1558 1557 1555 1554 1552 1550 1548 1546 1544 1541 1538 1535 1532 1528 1525 1522
1544 1546 1547 1549 1550 1552 1553 1554 1555 1556 1558 1559 1560 1560 1560 1560 1559 1559 1558 1558 1558 1557 1556 1555 1553 1551 1549 1548 1546 1543 1541 1538 1535 1532 1529 1525 1522 1518
1543 1545 1547 1548 1550 1551 1552 1553 1555 1556 1558 1558 1559 1559 1559 1559 1559 1558 1557 1556 1556 1555 1554 1553 1551 1549 1546 1545 1543 1541 1538 1535 1532 1529 1526 1522 1519 1514
1541 1543 1545 1548 1549 1550 1552 1553 1554 1556 1558 1559 1560 1560 1559 1559 1559 1558 1557 1556 1555 1554 1553 1552 1550 1547 1546 1543 1540 1538 1535 1532 1529 1526 1523 1519 1515 1511
1541 1543 1545 1547 1549 1550 1552 1553 1554 1556 1557 1559 1559 1559 1559 1559 1558 1557 1556 1556 1555 1554 1552 1551 1549 1546 1544 1540 1538 1535 1533 1530 1526 1523 1519 1515 1511 1508
1541 1543 1545 1547 1549 1550 1552 1553 1554 1555 1557 1558 1559 1559 1559 1559 1558 1558 1557 1556 1554 1553 1552 1550 1548 1545 1543 1540 1537 1533 1530 1527 1524 1520 1516 1512 1508 1504
1542 1543 1545 1547 1549 1551 1552 1554 1555 1556 1557 1558 1558 1559 1559 1558 1558 1557 1556 1555 1554 1553 1551 1549 1547 1545 1542 1539 1536 1532 1529 1526 1522 1518 1513 1509 1505 1502
1543 1545 1547 1549 1551 1552 1554 1555 1556 1557 1558 1558 1559 1559 1559 1558 1558 1557 1556 1555 1554 1552 1550 1548 1546 1544 1541 1538 1534 1531 1527 1523 1519 1515 1510 1506 1503 1499
1544 1546 1549 1551 1553 1554 1556 1557 1557 1558 1558 1559 1559 1559 1559 1559 1558 1557 1556 1555 1553 1551 1549 1547 1544 1541 1539 1536 1534 1529 1525 1521 1517 1513 1508 1504 1499 1496
1546 1548 1551 1552 1554 1556 1557 1558 1558 1558 1559 1559 1559 1559 1559 1559 1558 1557 1556 1554 1552 1551 1549 1546 1544 1540 1537 1533 1530 1528 1523 1518 1514 1510 1506 1502 1497 1493
1547 1550 1552 1554 1555 1556 1557 1558 1558 1559 1559 1560 1560 1559 1559 1558 1558 1557 1555 1554 1552 1550 1548 1546 1543 1540 1536 1533 1528 1525 1522 1518 1513 1508 1503 1499 1495 1491
1549 1551 1553 1554 1555 1556 1557 1558 1558 1559 1559 1560 1559 1559 1559 1558 1557 1556 1555 1553 1551 1549 1547 1545 1542 1539 1535 1531 1527 1523 1520 1516 1512 1507 1502 1497 1492 1487
1550 1551 1553 1554 1555 1556 1557 1557 1558 1559 1559 1559 1559 1558 1558 1557 1556 1555 1554 1552 1550 1548 1546 1543 1540 1537 1534 1530 1526 1521 1517 1513 1509 1505 1501 1497 1492 1486
1550 1551 1552 1554 1554 1555 1556 1557 1558 1558 1558 1558 1558 1557 1557 1556 1555 1554 1553 1551 1549 1547 1544 1541 1538 1535 1532 1528 1524 1520 1515 1511 1506 1502 1499 1495 1491 1486